TimeMST,TemperatureF,Dew PointF,Humidity,Sea Level PressureIn,VisibilityMPH,Wind Direction,Wind SpeedMPH,Gust SpeedMPH,PrecipitationIn,Events,Conditions,WindDirDegrees,DateUTC
12:55 AM,43.7,40.1,87,30.01,10.0,East,16.1,-,0.00,,Clear,100,2012-11-07 07:55:00
1:55 AM,44.1,40.6,88,30.01,10.0,East,15.0,-,0.00,,Clear,90,2012-11-07 08:55:00
2:55 AM,45.5,39.6,80,30.00,10.0,East,10.4,-,0.00,,Clear,80,2012-11-07 09:55:00
3:55 AM,43.9,40.8,89,29.99,10.0,ESE,11.5,-,0.00,,Clear,110,2012-11-07 10:55:00
4:55 AM,39.2,39.2,100,30.01,10.0,ESE,10.4,-,N/A,,Clear,110,2012-11-07 11:55:00
5:55 AM,36.3,36.3,100,30.02,10.0,East,9.2,-,0.00,,Clear,90,2012-11-07 12:55:00
6:55 AM,36.7,36.7,100,30.01,10.0,East,9.2,-,N/A,,Partly Cloudy,90,2012-11-07 13:55:00
7:55 AM,39.7,39.7,100,30.02,10.0,East,12.7,-,N/A,,Partly Cloudy,90,2012-11-07 14:55:00
8:55 AM,46.9,38.7,73,30.00,10.0,East,8.1,-,N/A,,Clear,100,2012-11-07 15:55:00
9:55 AM,53.6,35.4,50,29.99,10.0,East,11.5,-,N/A,,Clear,100,2012-11-07 16:55:00
10:55 AM,60.4,32.4,35,29.96,10.0,East,9.2,-,N/A,,Scattered Clouds,100,2012-11-07 17:55:00
11:55 AM,63.3,32.2,31,29.95,10.0,East,4.6,-,N/A,,Scattered Clouds,80,2012-11-07 18:55:00
12:55 PM,65.8,32.9,29,29.91,10.0,Calm,Calm,-,N/A,,Scattered Clouds,0,2012-11-07 19:55:00
1:55 PM,68.4,33.4,27,29.89,10.0,North,11.5,-,N/A,,Mostly Cloudy,350,2012-11-07 20:55:00
2:55 PM,65.3,38.7,38,29.88,10.0,North,16.1,-,N/A,,Mostly Cloudy,350,2012-11-07 21:55:00
3:55 PM,62.8,38.5,41,29.88,10.0,NNW,16.1,-,N/A,,Mostly Cloudy,340,2012-11-07 22:55:00
4:55 PM,59.4,41.0,51,29.90,10.0,NW,12.7,-,N/A,,Mostly Cloudy,310,2012-11-07 23:55:00
5:55 PM,53.4,40.6,62,29.92,10.0,WNW,11.5,-,N/A,,Mostly Cloudy,290,2012-11-08 00:55:00
6:55 PM,49.3,43.2,79,29.94,10.0,WNW,9.2,-,N/A,,Mostly Cloudy,300,2012-11-08 01:55:00
7:55 PM,47.8,39.6,73,29.93,10.0,WNW,9.2,-,N/A,,Mostly Cloudy,300,2012-11-08 02:55:00
8:55 PM,47.1,36.1,66,29.91,10.0,WNW,10.4,-,N/A,,Mostly Cloudy,300,2012-11-08 03:55:00
9:55 PM,45.7,34.5,65,29.89,10.0,NW,9.2,-,N/A,,Mostly Cloudy,310,2012-11-08 04:55:00
10:55 PM,41.5,34.2,75,29.87,10.0,West,6.9,-,N/A,,Mostly Cloudy,280,2012-11-08 05:55:00
11:55 PM,39.0,32.7,78,29.84,10.0,WNW,5.8,-,N/A,,Mostly Cloudy,290,2012-11-08 06:55:00